Flag for Greenland Weather past 2 weeks in Ilulissat, Greenland

Now
39 °F

Drizzle. Cloudy.


Feels Like: 36 °F
Forecast: 39 / 43 °F
Wind: 5 mph from Southwest

Location: Jacobshavn Lufthavn

Current Time: Sep 1, 2015 at 10:38:04 AM

Latest Report: Sep 1, 2015 at 9:50 AM


Visibility: N/A

Pressure: 29.98 "Hg

Humidity: 87%

Dew point: 36 °F

Location of IlulissatLocation

Historic Weather in Ilulissat — Graph

°F

Ilulissat temperature yesterday

Maximum temperature yesterday: 45 °F (at 2:50 PM)
Minimum temperature yesterday: 37 °F (at 12:50 AM)
Average temperature yesterday: 40 °F

Past Weeks' High & Low Weather Summary

 TemperatureHumidityPressure
High52 °F (Aug 20, 2:50 AM)100% (Aug 28, 7:50 PM)30.21 "Hg (Aug 28, 7:50 PM)
Low30 °F (Aug 24, 5:50 AM)28% (Aug 27, 2:50 PM)29.62 "Hg (Aug 17, 9:50 AM)
Average41 °F75%29.93 "Hg
* Reported Aug 17 8:50 AM — Sep 1 8:50 AM, Ilulissat, Weather by CustomWeather, © 2015

Note: Actual official high and low records may vary slightly from our data, if they occured in-between our weather recording intervals... More about our weather records

Advertising

Ilulissat weather history for previous 24 hours

 ConditionsComfort  
Time TempWeatherWind HumidityBarometerVisibility
8:50 AM
Tue, Sep 1
39 °FDrizzle. Mostly cloudy.6 mph87%29.98 "HgN/A
7:50 AM39 °FDrizzle. Mostly cloudy.6 mph93%29.98 "HgN/A
6:50 AM39 °FDrizzle. Mostly cloudy.8 mph93%29.98 "Hg5 mi
5:50 AM39 °FLight rain. Mostly cloudy.No wind93%29.98 "Hg6 mi
4:50 AM39 °FLight rain. Mostly cloudy.3 mph93%29.98 "HgN/A
3:50 AM39 °FLight rain. Passing clouds.3 mph93%29.98 "HgN/A
2:50 AM41 °FLight rain. Partly cloudy.1 mph87%29.98 "HgN/A
12:50 AM41 °FMostly cloudy.6 mph87%29.98 "HgN/A
11:50 PM
Mon, Aug 31
41 °FOvercast.9 mph87%29.98 "HgN/A
10:50 PM41 °FMostly cloudy.9 mph87%29.98 "HgN/A
9:50 PM41 °FMore clouds than sun.12 mph87%29.98 "HgN/A
8:50 PM41 °FSprinkles. Cloudy.14 mph87%29.98 "Hg6 mi
7:50 PM39 °FLight rain. Partly sunny.14 mph93%29.98 "HgN/A
6:50 PM41 °FLight rain. Partly sunny.13 mph87%29.95 "HgN/A
5:50 PM39 °FLight rain. Partly sunny.20 mph93%29.95 "HgN/A
4:50 PM39 °FLight rain. Partly sunny.21 mph93%29.92 "HgN/A
3:50 PM41 °FLight rain. Partly sunny.21 mph87%29.86 "HgN/A
2:50 PM45 °FLight rain. Partly sunny.16 mph87%29.83 "HgN/A
1:50 PM39 °FLight rain. Partly sunny.2 mph93%29.80 "HgN/A
12:50 PM39 °FLight rain. Partly sunny.7 mph93%29.77 "HgN/A
11:50 AM39 °FLight rain. Partly sunny.1 mph93%29.77 "HgN/A
10:50 AM39 °FLight rain. Partly sunny.No wind93%29.77 "HgN/A
Weather by CustomWeather, © 2015

See weather overviewHow to use our weather pages